www.pogodaiklimat.ru

Погода и климат >> Архив погоды >> Украина >> Черновцы


АРХИВ ПОГОДЫ в Черновцах

Время (UTC), дата Ветер
(напр.,м/с)
 
Видим.   Явления Облачность Т
(С)
Тd
(С)
f
(%)
Тe
(С)
Тes
(С)
Комфортность P
(гПа)
Po
(гПа)
Тmin
(С)
Tmax
(С)
R
(мм)
R24
(мм)
S
(см)
06 17.05 СЗ 3 11 км в посл. час туман 8/8 210 м
[St]
+12.5 +12.1 97 +11 +12 по сезону 1013.2 984.1 +11.2
09 17.05 В 3 30 км 6/6 1500 м
[Cu hum]
+17.5 +14.0 80 +18 +23 тепло 1013.0 984.4
12 17.05 В 3 50 км 8/0
[Ci fib]
+20.5 +13.6 65 +23 +34 комфорт 1012.0 983.7
15 17.05 В 5 50 км 8/0
[Ci fib]
+22.5 +11.8 51 +25 +27 комфорт 1011.2 983.1
18 17.05 Ю 1 45 км 6/0
[Ci fib]
+20.0 +10.7 55 +23 +23 комфорт 1011.3 982.9 +22.5
21 17.05 СЗ 3 20 км ясно +16.3 +13.7 85 +16 +16 тепло 1011.4 982.7
00 18.05 ЮЗ 2 10 км зарница 8/3 1000 м
[Cb calv Ac trans]
+14.9 +12.6 86 +15 +15 тепло 1011.7 982.8
03 18.05 СЗ 3 23 км 8/0
[Ac trans Ci fib]
+13.0 +11.7 92 +12 +12 по сезону 1011.7 982.6
06 18.05 СЗ 3 40 км 8/0
[Ac trans Ci fib]
+15.5 +13.0 85 +15 +18 тепло 1011.5 982.7 +12.6
09 18.05 С 2 50 км 9/4 1500 м
[Cu hum Ci fib]
+20.8 +13.8 64 +24 +32 комфорт 1010.1 981.9
12 18.05 В 12-19
{19}
1200 м гроза, ливневой дождь 10/10 120 м
[Cb cap]
+22.0 +14.6 63 +25 +25 комфорт 1010.0 981.9 0.3
15 18.05 СВ 2 50 км в посл. час гроза {ливн. осадки} 9/4 1000 м
[Cb calv Ac trans]
+16.3 +15.1 93 +16 +18 по сезону 1010.8 982.1
18 18.05 СЗ 1
{19}
7000 м дымка {гроза, ливн. осадки} 9/4 450 м
[Cb calv Ac trans]
+16.0 +14.8 93 +17 +17 по сезону 1009.8 981.1 +23.6 14
21 18.05 СЗ 2 600 м туман 9/0
[Ac trans]
+14.5 +14.5 100 +14 +14 по сезону 1010.4 981.6
00 19.05 штиль 0 100 м туман 8/0
[Ac trans]
+13.6 +13.6 100 +13 +13 по сезону 1009.8 980.9
03 19.05 ЮВ 1 2000 м дымка {туман} 10/10 270 м
[St]
+13.9 +13.4 97 +14 +14 тепло 1009.6 980.7
06 19.05 штиль 0 35 км {туман} 9/9 1500 м
[Cb calv]
+16.1 +14.5 90 +16 +17 тепло 1010.2 981.5 +12.9
09 19.05 В 5 50 км 8/5 1500 м
[Sc Ac trans]
+20.8 +16.9 78 +24 +27 комфорт 1009.9 981.7
12 19.05 В 5 50 км 8/8 1500 м
[Cu hum]
+23.1 +16.3 66 +28 +29 душно 1009.0 981.0
15 19.05 ЮВ 7 50 км 4/4 1500 м
[Cu hum]
+23.7 +15.5 60 +27 +28 жарко 1008.0 980.1
18 19.05 В 4 50 км 5/4 1500 м
[Sc Ci fib]
+20.4 +16.1 76 +23 +23 комфорт 1008.5 980.3 +24.4
21 19.05 В 4 25 км 4/0
[Ci fib]
+18.4 +16.4 88 +19 +19 тепло 1008.2 979.8
00 20.05 В 2 45 км 4/0
[Ci fib]
+15.6 +13.5 87 +15 +15 тепло 1008.8 980.1
03 20.05 В 5 19 км 8/0
[Ac trans]
+14.6 +13.5 93 +13 +13 по сезону 1008.5 979.7
06 20.05 В 5 25 км 8/8 270 м
[St]
+17.8 +16.3 91 +17 +18 тепло 1008.4 980.0 +13.4
09 20.05 ЮВ 9 45 км 8/8 1500 м
[Cu hum]
+21.3 +16.9 76 +25 +25 комфорт 1008.2 980.1
12 20.05 ЮВ 11 40 км 9/4 1000 м
[Cb calv Ac trans]
+22.0 +16.1 69 +26 +26 душно 1007.6 979.6
15 20.05 В 11 40 км 9/4 1000 м
[Cb calv Ac trans]
+21.1 +16.2 74 +24 +24 комфорт 1006.5 978.4
18 20.05 В 5 30 км гроза без осадков 9/6 1000 м
[Cb calv Ac trans]
+19.1 +15.9 82 +20 +20 тепло 1005.7 977.5 +22.5
21 20.05 СЗ 4 25 км зарница {гроза} 9/6 1000 м
[Cb calv Ac trans]
+15.4 +12.3 82 +14 +14 по сезону 1007.6 978.9
00 21.05 С 1 20 км {гроза, ливн. осадки} 9/6 450 м
[Cb calv Ac trans]
+14.0 +12.9 93 +14 +14 тепло 1005.2 976.4
03 21.05 штиль 0 50 км {гроза, ливн. осадки} 8/4 1000 м
[Cb calv Ac trans]
+13.2 +12.7 97 +13 +13 по сезону 1005.0 976.2
06 21.05 Ю 3 50 км {гроза, ливн. осадки} 5/0
[Ac trans]
+15.2 +10.3 73 +15 +18 тепло 1005.8 977.1 +13.1 5
09 21.05 ЮЗ 2 50 км 8/8 1500 м
[Cb calv]
+19.5 +9.4 52 +21 +24 комфорт 1006.3 978.0
12 21.05 З 6 50 км {ливн. осадки} 8/4 1000 м
[Cb calv Ac trans]
+17.2 +6.9 51 +16 +19 прохладно 1007.9 979.3
15 21.05 ЮЗ 3 50 км 8/3 1000 м
[Cb calv Ci fib]
+18.2 +5.4 43 +18 +21 по сезону 1008.1 979.6
18 21.05 штиль 0 50 км 8/4 1000 м
[Cb calv Ci fib]
+16.0 +10.8 71 +16 +16 по сезону 1009.1 980.4 +19.5 0.0
21 21.05 Ю 1 50 км 10/4 1000 м
[Cb calv Ac As]
+15.0 +9.7 71 +16 +16 тепло 1009.5 980.7
00 22.05 ЮЗ 1 50 км 8/0
[Ac trans Ci fib]
+13.4 +9.1 75 +14 +14 тепло 1009.6 980.6
03 22.05 штиль 0 50 км 8/0
[Ac trans Ci fib]
+12.6 +7.8 73 +12 +12 по сезону 1009.2 980.1
06 22.05 Ю 1 50 км 8/0
[Ac trans Ci fib]
+16.0 +9.1 64 +17 +22 тепло 1009.0 980.3 +12.4
09 22.05 Ю 2 50 км 8/5 1500 м
[Cu hum Ci fib]
+21.0 +8.6 45 +23 +30 комфорт 1008.2 980.0
12 22.05 З 4 50 км 8/8 1500 м
[Cu hum]
+21.4 +6.6 38 +22 +24 комфорт 1008.2 980.0
15 22.05 С 3 50 км 8/4 1500 м
[Cu hum Ac trans]
+21.5 +7.6 41 +22 +24 комфорт 1007.5 979.4
18 22.05 Ю 1 50 км 8/8 1500 м
[Sc]
+18.4 +8.5 52 +20 +20 тепло 1007.8 979.4 +22.6
21 22.05 Ю 2 50 км 9/9 1500 м
[Sc]
+16.3 +8.1 58 +16 +16 тепло 1008.3 979.6
00 23.05 ЮЗ 1 50 км 8/0
[Ac trans]
+14.8 +8.8 67 +15 +15 тепло 1008.1 979.3
03 23.05 ЮЗ 1 50 км 9/9 1500 м
[Cb calv]
+14.3 +9.1 71 +15 +15 тепло 1008.0 979.2
06 23.05 штиль 0 40 км 8/8 1500 м
[Sc]
+16.0 +12.6 80 +16 +18 тепло 1008.9 980.2 +13.6
09 23.05 СЗ 4 50 км 8/4 1500 м
[Cu hum Ac trans]
+19.7 +12.5 63 +21 +25 комфорт 1009.0 980.7
12 23.05 В 2 50 км 8/8 1000 м
[Cb calv]
+21.5 +10.2 49 +23 +26 комфорт 1008.4 980.2
15 23.05 СЗ 4 50 км 8/8 1000 м
[Cb calv]
+21.4 +9.2 46 +23 +23 комфорт 1008.3 980.1
18 23.05 З 4 50 км 5/3 1000 м
[Cb calv Ac trans]
+18.3 +11.6 65 +18 +18 тепло 1009.5 981.0 +22.8
21 23.05 СЗ 3 50 км 6/0
[Ci fib]
+16.3 +11.6 74 +16 +16 тепло 1010.6 981.9
00 24.05 СЗ 3 50 км 8/0
[Ci fib]
+15.0 +10.1 72 +14 +14 тепло 1010.5 981.7
03 24.05 СЗ 4 50 км 8/8 240 м
[Cb calv]
+14.2 +12.4 89 +13 +13 по сезону 1010.6 981.7

 

Местоположение метеостанции Черновцы (Черновицкая область, Украина): широта 48.37 долгота 25.90 высота над уровнем моря 246 м.

В архиве по умолчанию представлена погода в Черновцах за последнюю неделю. Архивные данные за месяц целиком и за предыдущие месяцы, начиная с января 2011 года, Вы можете получить, выбрав интересующий диапазон дат из раскрывающегося списка и нажав кнопку "Ввод!".


*Определитесь, кто Вы:
робот инопланетянин человек

Внимание! Время в таблицах - всемирное. Для получения местного времени необходимо прибавить поправку, которая равна 2 ч.

Смотрите также архив погоды в соседних городах и на ближайших метеорологических станциях:

Погода в Дарабани (Румыния) (54 км)
Погода в Рэдэуци (Румыния) (60 км)
Погода в Каменец-Подольском (Хмельницкая область, Украина) (65 км)
Погода в Коломые (Ивано-Франковская область, Украина) (67 км)
Погода в Чорткове (Тернопольская область, Украина) (73 км)
Погода в Селятине (Черновицкая область, Украина) (75 км)
Погода в Сучава (Румыния) (86 км)
Погода в Бричанах (Молдова) (87 км)
Погода в Ботошани (Румыния) (90 км)
Погода на Пожежевской (Ивано-Франковская область, Украина) (107 км)

Пояснения к столбцам:

Ветер - указаны скорость ветра в м/с - средняя за 10 мин, порывы в срок и между сроками (в фигурных скобках) и направление, откуда дует ветер: С - северный, СВ - северо-восточный, В - восточный, ЮВ - юго-восточный, Ю - южный, ЮЗ - юго-западный, З - западный, СЗ - северо-западный.
Видимость - горизонтальная дальность видимости в метрах или километрах. При видимости от 1 до 10 км при отсутствии осадков обычно наблюдается дымка, при ухудшении видимости до 1 км и менее - туман. В сухую погоду видимость может ухудшаться дымом, пылью или мглою.
Явления - указаны атмосферные явления, наблюдавшиеся в срок или в последний час перед сроком; фигурными скобками обозначены явления, наблюдавшиеся между сроками (за 1-3 часа до срока); квадратными скобками обозначены град или гололедные отложения с указанием их диаметра в мм.
Облачность - указаны через наклонную черту общая и нижняя облачность в баллах и высота нижней границы облаков в метрах; квадратными скобками обозначены формы облаков: Ci - перистые, Cs - перисто-слоистые, Cc - перисто-кучевые, Ac - высококучевые, As - высокослоистые, Sc - слоисто-кучевые, Ns - слоисто-дождевые, Cu - кучевые, Cb - кучево-дождевые. Подробнее классификацию облаков см. в Атласе облаков (PDF).
T - Температура воздуха - температура, измеренная на высоте 2 м над землей.
Td - Температура точки росы - температура, при понижении до которой содержащийся в воздухе водяной пар достигнет насыщения.
f - Относительная влажность воздуха - влажноcть воздуха, измеренная на высоте 2 м над землей.
Te - Эффективная температура - температура, которую ощущает одетый по сезону человек в тени. Характеристика душности погоды. При расчете учитывается влияние влажности воздуха и скорости ветра на теплоощущения человека.
Tes - Эффективная температура на солнце - температура, которую ощущает человек, с поправкой на солнечный нагрев. Характеристика знойности погоды. Зависит от высоты солнца над горизонтом, облачности и скорости ветра. Ночью, в пасмурную погоду, а также при ветре 12 м/с и более поправка равна нулю.
P - Атмосферное давление - приведенное к уровню моря атмосферное давление.
Po - Атмосферное давление - измеренное на уровне метеостанции атмосферное давление.
Tmin - Минимальная температура - минимум температуры воздуха на высоте 2 м над землей.
Tmax - Максимальная температура - максимум температуры воздуха на высоте 2 м над землей.
R - Количество осадков - Количество выпавших осадков за период времени, мм. При наведении курсора мыши на число - период времени, за который выпало указанное количество осадков.
R24 - Количество осадков - Количество выпавших осадков за 24 часа, мм.
S - Снежный покров - Высота снежного покрова, см. При наведении курсора мыши на число - состояние снежного покрова и степень покрытия местности в баллах.